Location: East Ham
(51.5333°N, 0.0500°E)
Time: 12:04:34
(UTC+00:00)

Daily predictions for brighter satellites

Satellite Brightness Start Highest point End
(mag) Time Altitude Azimuth Time Altitude Azimuth Time Altitude Azimuth
Sich 1 4.1 20:36:35 10° N 20:40:29 30° ENE 20:44:22 10° SE
Okean O Rocket 3.3 20:37:51 10° SSW 20:41:51 33° W 20:45:53 10° NNW
SPOT 3 Rocket 4.0 20:37:02 10° SE 20:41:56 47° ENE 20:46:52 10° N
CZ-4 R/B 4.2 20:40:51 10° WSW 20:42:36 13° W 20:44:22 10° WNW
USA 307 0.0 20:42:10 10° W 20:42:56 30° SSW 20:43:28 15° SE
Cosmos 2221 3.0 20:41:09 10° SSW 20:45:27 66° WNW 20:49:46 10° N
Cosmos 2292 Rocket 4.2 20:40:37 10° S 20:46:49 82° W 20:51:30 10° N
Cosmos 1766 Rocket 4.4 20:46:08 10° NNW 20:50:28 53° W 20:54:49 10° S
USA 281 3.7 20:44:18 10° SE 20:50:39 52° NE 20:57:01 10° NNW
Ariane Rocket 3.2 20:48:59 10° SSE 20:53:59 63° ENE 20:59:02 10° N
MetOp-B 4.4 20:48:47 10° S 20:54:08 70° WSW 20:59:31 10° NNW
Terra 1.8 21:00:10 10° SSE 21:04:53 86° ENE 21:09:38 10° NNW
Cosmos 1452 Rocket 3.8 21:00:34 10° NNW 21:05:47 67° WSW 21:10:58 10° SSE
Cosmos 1340 Rocket 3.8 21:03:17 10° SSE 21:06:46 29° E 21:10:15 10° NNE
Cosmos 1743 Rocket 4.0 21:02:33 10° N 21:06:51 48° ENE 21:10:55 11° SSE
MOS 1 Rocket 3.7 21:02:17 10° SSE 21:07:24 67° ENE 21:12:45 10° N
Cosmos 921 Rocket 4.1 21:03:09 10° SW 21:07:31 50° WNW 21:11:54 10° NNE
USA 32 4.5 21:03:51 10° SSW 21:09:01 66° W 21:14:15 10° N
NOSS 2-1 (C) 3.6 21:07:56 10° NW 21:11:30 64° NE 21:16:11 11° SE
USA 234 4.0 21:05:29 10° ENE 21:11:53 58° N 21:18:17 10° W
Lacrosse 5 rocket 2.8 21:08:01 10° W 21:12:05 41° N 21:16:04 10° ENE
Cosmos 468 4.5 21:07:11 10° SSW 21:12:20 68° ESE 21:17:32 10° NNE
CZ-4C R/B 4.2 21:09:46 10° N 21:13:28 50° WNW 21:17:17 10° SW
ARIANE 5 R/B 4.4 21:13:17 10° ESE 21:16:26 20° ENE 21:19:35 10° NNE
Cosmos 1408 Rocket 3.7 21:12:11 10° NNW 21:16:39 83° W 21:21:06 10° S
ERS-1 Rocket 3.3 21:13:14 10° S 21:18:13 65° WSW 21:23:15 10° NNW
Meteor 2-10 4.2 21:13:31 10° N 21:19:06 78° ENE 21:24:13 11° SSE
Cosmos 2279 Rocket 4.3 21:17:35 10° NNW 21:23:45 67° W 21:29:51 10° S
Spot 1 4.4 21:20:26 10° NNE 21:24:20 42° E 21:28:04 11° S
SL-8 R/B 3.8 21:19:54 10° WSW 21:24:33 56° S 21:29:13 10° E
USA 245 3.5 21:22:35 10° SSW 21:24:38 32° W 21:26:53 10° NNW
Cosmos 1626 4.0 21:24:36 11° ESE 21:25:50 13° E 21:27:19 10° ENE
Nadezhda 4 Rocket 4.2 21:21:38 10° S 21:27:40 57° E 21:33:47 10° NNE
SPOT 5 4.3 21:28:54 10° SSW 21:32:52 30° W 21:36:44 10° NNW
Meteor 1-10 Rocket 4.4 21:28:26 10° SSW 21:34:08 80° WNW 21:39:47 10° N
SL-16 R/B 4.2 21:29:28 10° WSW 21:34:33 32° NW 21:39:39 10° NNE
Meteor 1-19 Rocket 4.3 21:29:30 10° S 21:35:20 70° E 21:41:01 10° NNE
Cosmos 1603 3.7 21:31:15 10° SSW 21:36:55 84° ESE 21:42:41 10° NNE
Cosmos 1833 Rocket 4.5 21:35:25 11° ESE 21:37:39 14° E 21:40:30 10° ENE
Cosmos 2369 Rocket 4.2 21:33:48 10° NW 21:37:48 20° W 21:41:49 10° SSW
Okean 1 3.3 21:34:33 10° SSW 21:38:24 82° W 21:42:19 10° N
Cosmos 1975 3.4 21:36:41 10° N 21:40:29 44° ENE 21:43:09 18° SE
Cosmos 1151 Rocket 3.3 21:37:10 14° S 21:40:46 53° E 21:45:00 10° NNE
Meteor 1-11 Rocket 4.3 21:36:07 10° NNW 21:41:40 58° W 21:47:19 10° S
Meteor 2-17 Rocket 4.4 21:41:58 10° S 21:47:59 77° E 21:54:04 10° NNE
Cosmos 1302 Rocket 4.2 21:43:21 10° NNW 21:48:32 68° WSW 21:52:42 16° S
Cosmos 1536 4.1 21:45:38 10° NNW 21:49:12 35° W 21:52:46 10° SSW
Cosmos 1992 Rocket 4.1 21:43:58 10° NNW 21:49:13 69° ENE 21:53:10 17° SE
Cosmos 1726 4.1 21:48:18 10° NW 21:50:34 18° W 21:52:47 10° SW
Cosmos 1500 Rocket 4.2 21:47:18 10° NNW 21:51:29 50° W 21:55:23 11° SSW
USA 306 4.3 21:50:03 10° W 21:52:57 20° SW 21:54:47 15° S
Cosmos 1656 3.8 21:48:24 10° NNW 21:53:52 70° ENE 21:58:06 17° SE
Cosmos 1766 4.4 21:53:51 10° N 21:57:12 30° ENE 21:59:18 18° ESE
Cosmos 1805 3.1 21:55:26 10° N 21:59:10 90° WNW 22:01:33 21° S
Lacrosse 4 Rocket 1.4 21:55:36 10° NW 21:59:42 78° NE 22:02:26 21° SE
Cosmos 1733 3.9 21:57:10 10° NNW 22:00:32 43° W 22:03:12 15° SSW
Cosmos 1470 Rocket 4.5 21:57:16 10° N 22:01:26 37° ENE 22:04:11 18° SE
Cosmos 1805 Rocket 4.3 21:57:48 10° NNW 22:02:02 47° W 22:05:48 13° SSW
H-2A R/B 3.6 22:02:15 16° ESE 22:05:00 33° ENE 22:08:52 10° N
IRIDIUM 104 4.3 22:00:21 10° N 22:05:36 74° E 22:09:23 19° SSE
Cosmos 2026 Rocket 4.1 22:02:10 16° S 22:07:08 61° E 22:13:16 10° NNE
Cosmos 1470 4.5 22:04:29 10° NNE 22:07:17 20° ENE 22:09:19 14° ESE
Cosmos 1633 Rocket 3.2 22:04:19 10° N 22:08:43 64° ENE 22:11:28 22° SSE
USA 59 Rocket 0.5 22:06:10 10° NW 22:09:56 52° SW 22:13:06 21° SSE
Cosmos 1666 Rocket 3.5 22:06:30 10° N 22:10:50 79° E 22:13:32 22° SSE
Landsat 5 3.4 22:07:14 10° N 22:11:00 70° WNW 22:14:26 12° SSW
Cosmos 1943 4.4 22:05:44 10° WSW 22:11:09 44° NW 22:16:34 10° NNE
NOSS 2-1 (E) 4.0 22:08:15 10° NW 22:12:02 50° SW 22:15:08 21° SSE
NOSS 3-3 (A) 4.3 22:08:04 15° S 22:12:08 40° ESE 22:17:57 10° NE
Cosmos 1340 3.7 22:10:00 10° NNW 22:13:06 33° W 22:15:25 15° SSW
IRIDIUM 114 4.3 22:09:29 10° N 22:14:45 87° E 22:18:30 20° S
Sich 1 4.4 22:14:00 10° NNW 22:17:56 33° W 22:21:38 11° SSW
CZ-2C R/B 3.9 22:16:44 10° NNE 22:21:08 51° E 22:23:38 24° SSE
Cosmos 44 Rocket 3.8 22:16:30 10° NW 22:21:25 56° NE 22:25:16 15° ESE
Cosmos 220 Rocket 3.9 22:18:09 16° SSW 22:21:32 75° ESE 22:25:52 10° NNE
IRIDIUM 103 4.4 22:18:39 10° N 22:23:54 80° W 22:27:38 20° S
NOSS 2-1 (D) 4.4 22:21:00 10° WNW 22:24:39 38° SW 22:27:17 22° S
Cosmos 1818 3.8 22:21:17 14° SSW 22:25:48 51° ESE 22:31:07 10° NE
NOSS 3-4 (A) 4.2 22:19:56 10° NW 22:26:27 60° NE 22:34:00 10° ESE
NOSS 3-4 (C) 4.2 22:20:03 10° NW 22:26:33 60° NE 22:34:05 10° ESE
NOSS 8 (A) 4.3 22:23:34 10° SW 22:27:22 86° NW 22:30:26 10° NE
ALOS 2 3.8 22:26:21 17° ESE 22:29:05 33° ENE 22:33:01 10° N
Cosmos 1697 Rocket 3.0 22:25:48 10° NNW 22:31:24 61° NE 22:35:27 19° SE
USA 281 4.0 22:30:22 16° S 22:35:17 43° WSW 22:41:32 10° NW
Cosmos 1553 Rocket 4.0 22:29:53 10° N 22:35:58 70° ENE 22:39:57 23° SSE
GEOS 3 Rocket 3.5 22:31:33 10° NE 22:36:48 86° SE 22:41:55 10° SW
Meteor 2-4 Rocket 3.9 22:33:19 15° SSW 22:38:15 82° WNW 22:44:14 10° NNE
Cosmos 1674 3.4 22:37:26 28° SE 22:38:25 33° E 22:41:37 10° NNE
Cosmos 1980 Rocket 3.3 22:34:14 10° NNW 22:39:37 40° NE 22:44:37 12° ESE
NOSS 3-3 (C) 3.9 22:38:08 15° SSW 22:42:39 58° SE 22:49:00 10° NE
Terra 4.2 22:40:35 10° WSW 22:43:08 14° W 22:45:42 10° NW
MINOTAUR 4 R/B 3.4 22:40:41 10° NNE 22:43:40 83° ESE 22:44:36 40° S
Cosmos 1066 Rocket 4.3 22:41:55 22° S 22:45:45 71° E 22:51:36 10° NNE
Lacrosse 5 rocket 2.4 22:46:59 10° WNW 22:51:04 45° NNE 22:55:02 10° E
ARIANE 5 R/B 2.8 22:50:12 26° S 22:52:28 59° WSW 22:56:45 10° NNW
Cosmos 1908 3.9 22:49:35 10° N 22:52:58 38° ENE 22:54:20 26° ESE
USA 234 3.8 22:48:03 10° E 22:54:31 62° NNE 23:00:57 10° WNW
Cosmos 1269 Rocket 4.0 22:54:32 19° SSW 22:58:26 89° ESE 23:03:44 10° NNE
Cosmos 1092 Rocket 4.3 22:53:12 15° SSW 22:58:30 65° WNW 23:04:49 10° N
Cosmos 1626 2.6 22:57:24 24° SW 22:58:59 46° WNW 23:02:07 10° N
PSLV R/B 3.9 23:01:20 10° NNE 23:05:25 76° WNW 23:07:35 26° SSW
SL-8 R/B 3.7 23:02:03 10° W 23:06:42 55° S 23:10:29 15° ESE
BREEZE-M DEB (TANK) 2.5 23:08:17 10° W 23:14:08 10° ESE 23:14:15 10° ESE
Cosmos 1707 2.8 23:09:21 37° SSE 23:10:26 54° E 23:14:01 10° NNE
Cosmos 1441 Rocket 3.7 23:09:44 10° N 23:13:12 45° ENE 23:14:30 30° SE
SL-16 R/B 4.2 23:09:00 10° NNW 23:13:38 25° NE 23:18:15 10° E
Cosmos 2266 Rocket 4.2 23:12:28 25° SSE 23:15:59 59° E 23:22:09 10° NNE
Spot 4 3.9 23:13:59 30° S 23:16:20 72° WSW 23:21:08 10° NNW
Cosmos 1842 3.0 23:15:46 38° S 23:17:05 86° E 23:20:47 10° NNE
Cosmos 1833 Rocket 2.6 23:17:04 23° SSW 23:20:37 76° ESE 23:26:15 10° NNE
Cosmos 2082 Rocket 3.3 23:23:06 22° SE 23:25:18 29° ESE 23:30:09 10° NE
Cosmos 1300 3.9 23:26:13 10° N 23:29:25 30° ENE 23:30:52 22° ESE
Meteor 1-22 Rocket 4.2 23:25:34 10° N 23:30:54 71° ENE 23:33:54 27° SSE
Cosmos 1515 Rocket 3.9 23:28:42 26° SSW 23:30:58 60° WNW 23:35:15 10° N
KORONAS-FOTON 3.7 23:30:14 37° SSW 23:31:34 72° WNW 23:35:17 10° N
Cosmos 2228 Rocket 4.2 23:31:44 23° SE 23:33:32 32° E 23:37:33 10° NNE
Meteor 1-15 Rocket 4.2 23:29:27 10° N 23:35:09 77° ENE 23:38:16 27° SSE
H-2A R/B 2.8 23:32:34 10° NNE 23:36:46 40° E 23:38:23 29° SE
Lacrosse 4 Rocket 3.4 23:35:06 10° WNW 23:37:27 15° WSW 23:38:21 14° WSW
Cosmos 1733 Rocket 3.9 23:33:37 10° N 23:37:44 41° ENE 23:39:58 23° SE
H-2A R/B 3.7 23:38:15 23° SW 23:39:57 31° W 23:43:47 10° NNW
Cosmos 1869 Rocket 3.5 23:36:19 10° NNW 23:40:42 78° W 23:42:30 35° S
Cosmos 1470 3.5 23:39:22 10° NNW 23:42:50 38° W 23:43:59 30° SW
SOZ 4.5 23:42:58 10° WSW 23:46:23 64° SSE 23:48:49 10° E
GP-B 3.1 23:50:32 10° N 23:54:58 73° E 23:56:49 34° SSE
Cosmos 1400 Rocket 3.2 23:54:09 34° SSE 23:55:26 49° E 23:59:18 10° NNE
